Volver al catálogo

DELTA 1 DEB

ActivoSSO
NORAD 12257·DEBRIS·🇺🇸 United States

Lanzado Mar 5, 1978 desde Vandenberg Space Force Base

Loading…

Próximos Pases (próximas 24 horas)

TLE

ActualizadoSource: Space-Track

Época: Sep 13, 2026, 20:57 UTC

1 12257U 78026DA  26256.87309378  .00000292  00000-0  20147-3 0  9996
2 12257  99.3303 215.9888 0101347  33.8299 326.9278 14.04926766328776

Sigue DELTA 1 DEB en tiempo real con AllMySat

Download on the App Store